Location: Dehesa de la Cepeda
(40.6574°N, 4.3013°W)
Time: 20:11:50
(UTC+00:00)

Vanguard 3 - Pass Details

Date: 09 August 2021
Orbit: 510 x 3260 km, 33.3° (Epoch: 22 September)

Event Time Altitude Azimuth Distance (km) Brightness Sun altitude
Rises 23:31:26 0° 276° (W) 6,845 12.1 -32.5°
Reaches altitude 10° 23:38:21 10° 260° (W) 6,088 11.6 -32.9°
Maximum altitude 23:48:52 17° 227° (SW) 5,552 11.0 -33.2°
Enters shadow 23:50:18 17° 222° (SW) 5,549 11.0 -33.3°
